Terminal Aerodrome Forecast
Issued by NWS

Home | Current Version | Previous Version | Text Only | Print | Product List | Glossary On
Versions: 1 2 3 4 5 6 7 8 9 10 11 12 13 14 15 16 17 18 19 20 21 22 23 24 25 26 27 28 29 30
000
FTUS45 KSLC 290805 AAA
TAFENV
TAF AMD
KENV 290805Z 2908/3006 02009KT P6SM SKC
      TEMPO 2908/2910 35013G20KT
     FM291000 VRB04KT P6SM SKC
     FM291700 11006KT P6SM SCT200
      AMD LTD TO CLD VIS AND WIND=

USA.gov is the U.S. government's official web portal to all federal, state and local government web resources and services.